QFA71 YPPH-WSSS

Flight info

Callsign QFA71
Flight time N/A
Altitude 38000
Route PH Y15 AVNEX N752 MALBI/N0469F400 N752 PLB G579 SJ
Aircraft A333/H-SDE3GHIJ2J3J5M1RVWXY/LB2D1

Departure

Time 2026-04-27 00:03
Airport Perth International Airport (YPPH)

Arrival

Time N/A
Airport Singapore Changi Airport (WSSS)
Time Latitude Longitude Altitude Speed Heading
2026-04-26 23:35 -31.93765 115.96057 53 ft 0 kts 328°
2026-04-26 23:51 -31.93767 115.96058 61 ft 2 kts 327°
2026-04-26 23:51 -31.93785 115.96073 53 ft 2 kts 323°
2026-04-26 23:52 -31.93794 115.96081 53 ft 2 kts 319°
2026-04-26 23:52 -31.93805 115.96094 54 ft 2 kts 299°
2026-04-26 23:52 -31.93807 115.96112 54 ft 2 kts 241°
2026-04-26 23:52 -31.93805 115.96117 54 ft 0 kts 238°
2026-04-26 23:54 -31.93806 115.96116 63 ft 0 kts 238°
2026-04-26 23:55 -31.93832 115.96066 55 ft 12 kts 239°
2026-04-26 23:56 -31.93873 115.95984 52 ft 14 kts 239°
2026-04-26 23:56 -31.93908 115.95913 53 ft 5 kts 239°
2026-04-26 23:56 -31.93944 115.95863 54 ft 8 kts 213°
2026-04-26 23:56 -31.93983 115.95865 52 ft 7 kts 164°
2026-04-26 23:57 -31.94043 115.95899 54 ft 13 kts 150°
2026-04-26 23:57 -31.94139 115.95965 54 ft 19 kts 148°
2026-04-26 23:57 -31.94240 115.96036 57 ft 15 kts 149°
2026-04-26 23:57 -31.94328 115.96099 57 ft 15 kts 148°
2026-04-26 23:58 -31.94417 115.96148 57 ft 14 kts 175°
2026-04-26 23:58 -31.94514 115.96127 56 ft 15 kts 192°
2026-04-26 23:58 -31.94616 115.96098 59 ft 16 kts 194°
2026-04-26 23:58 -31.94730 115.96064 56 ft 18 kts 193°
2026-04-26 23:59 -31.94834 115.96034 59 ft 15 kts 194°
2026-04-26 23:59 -31.94948 115.96002 59 ft 18 kts 193°
2026-04-26 23:59 -31.95083 115.95961 56 ft 22 kts 194°
2026-04-26 23:59 -31.95244 115.95913 59 ft 25 kts 193°
2026-04-27 00:00 -31.95424 115.95862 54 ft 28 kts 194°
2026-04-27 00:00 -31.95606 115.95809 54 ft 26 kts 193°
2026-04-27 00:00 -31.95723 115.95775 55 ft 12 kts 194°
2026-04-27 00:00 -31.95797 115.95777 53 ft 10 kts 154°
2026-04-27 00:01 -31.95828 115.95828 51 ft 5 kts 113°
2026-04-27 00:01 -31.95831 115.95839 52 ft 3 kts 111°
2026-04-27 00:01 -31.95840 115.95871 53 ft 5 kts 105°
2026-04-27 00:01 -31.95845 115.95919 53 ft 6 kts 81°
2026-04-27 00:02 -31.95820 115.95963 53 ft 7 kts 44°
2026-04-27 00:02 -31.95774 115.95995 53 ft 9 kts 21°
2026-04-27 00:02 -31.95698 115.96024 55 ft 25 kts 17°
2026-04-27 00:02 -31.95348 115.96126 56 ft 80 kts 12°
2026-04-27 00:03 -31.94637 115.96331 54 ft 129 kts 13°
2026-04-27 00:03 -31.93639 115.96623 204 ft 159 kts 14°
2026-04-27 00:03 -31.92540 115.96906 710 ft 162 kts 14°
2026-04-27 00:03 -31.91449 115.97226 1367 ft 162 kts 16°
2026-04-27 00:04 -31.90353 115.97577 1850 ft 167 kts 15°
2026-04-27 00:04 -31.89163 115.97862 2050 ft 183 kts
2026-04-27 00:04 -31.87810 115.97860 2189 ft 206 kts 358°
2026-04-27 00:04 -31.86306 115.97750 2385 ft 227 kts 356°
2026-04-27 00:05 -31.84698 115.97592 2737 ft 240 kts 355°
2026-04-27 00:05 -31.83029 115.97411 3349 ft 242 kts 355°
2026-04-27 00:05 -31.81351 115.97224 4021 ft 242 kts 354°
2026-04-27 00:05 -31.79666 115.97035 4666 ft 245 kts 353°
2026-04-27 00:06 -31.77960 115.96843 5287 ft 248 kts 352°
2026-04-27 00:06 -31.76240 115.96649 5962 ft 249 kts 352°
2026-04-27 00:06 -31.74517 115.96455 6672 ft 249 kts 352°
2026-04-27 00:06 -31.72791 115.96261 7361 ft 249 kts 351°
2026-04-27 00:07 -31.71086 115.96069 8098 ft 249 kts 351°
2026-04-27 00:07 -31.69362 115.95875 8858 ft 249 kts 351°
2026-04-27 00:07 -31.67636 115.95681 9580 ft 250 kts 351°
2026-04-27 00:07 -31.65901 115.95485 10217 ft 253 kts 351°
2026-04-27 00:08 -31.64094 115.95278 10500 ft 269 kts 351°
2026-04-27 00:08 -31.62168 115.95057 10765 ft 286 kts 351°
2026-04-27 00:08 -31.60128 115.94825 10980 ft 303 kts 351°
2026-04-27 00:08 -31.57977 115.94583 11216 ft 317 kts 351°
2026-04-27 00:09 -31.55780 115.94338 11603 ft 325 kts 352°
2026-04-27 00:09 -31.53509 115.94085 12073 ft 330 kts 351°
2026-04-27 00:09 -31.51212 115.93830 12609 ft 333 kts 351°
2026-04-27 00:09 -31.48886 115.93571 13104 ft 338 kts 351°
2026-04-27 00:10 -31.46536 115.93308 13605 ft 341 kts 351°
2026-04-27 00:10 -31.44159 115.93042 14080 ft 345 kts 351°
2026-04-27 00:10 -31.41780 115.92778 14671 ft 342 kts 351°
2026-04-27 00:10 -31.39408 115.92513 15135 ft 344 kts 351°
2026-04-27 00:11 -31.37039 115.92247 15521 ft 349 kts 351°
2026-04-27 00:11 -31.34610 115.91975 15910 ft 353 kts 351°
2026-04-27 00:11 -31.32159 115.91701 16369 ft 355 kts 351°
2026-04-27 00:11 -31.29688 115.91425 16778 ft 358 kts 351°
2026-04-27 00:12 -31.27201 115.91147 17174 ft 361 kts 351°
2026-04-27 00:12 -31.24693 115.90868 17585 ft 363 kts 351°
2026-04-27 00:12 -31.22167 115.90586 17976 ft 366 kts 350°
2026-04-27 00:12 -31.19620 115.90302 18361 ft 369 kts 350°
2026-04-27 00:13 -31.17095 115.90021 18710 ft 371 kts 350°
2026-04-27 00:13 -31.14514 115.89733 19026 ft 374 kts 350°
2026-04-27 00:13 -31.11910 115.89443 19345 ft 377 kts 350°
2026-04-27 00:13 -31.09284 115.89151 19736 ft 380 kts 350°
2026-04-27 00:14 -31.06644 115.88858 20083 ft 383 kts 350°
2026-04-27 00:14 -31.03983 115.88563 20417 ft 386 kts 350°
2026-04-27 00:14 -31.01303 115.88265 20754 ft 388 kts 350°
2026-04-27 00:14 -30.98602 115.87965 21094 ft 391 kts 350°
2026-04-27 00:15 -30.95882 115.87664 21430 ft 394 kts 350°
2026-04-27 00:15 -30.93147 115.87361 21670 ft 398 kts 350°
2026-04-27 00:15 -30.90412 115.87057 21911 ft 402 kts 350°
2026-04-27 00:15 -30.87624 115.86749 22240 ft 403 kts 350°
2026-04-27 00:16 -30.84843 115.86324 22590 ft 402 kts 344°
2026-04-27 00:16 -30.82161 115.85437 22901 ft 400 kts 335°
2026-04-27 00:16 -30.79679 115.84004 23205 ft 398 kts 325°
2026-04-27 00:16 -30.77450 115.82105 23526 ft 398 kts 319°
2026-04-27 00:17 -30.75341 115.80003 23803 ft 400 kts 316°
2026-04-27 00:17 -30.73282 115.77816 24063 ft 402 kts 315°
2026-04-27 00:17 -30.71270 115.75626 24339 ft 404 kts 315°
2026-04-27 00:17 -30.69209 115.73378 24611 ft 406 kts 315°
2026-04-27 00:18 -30.67139 115.71135 24878 ft 408 kts 316°
2026-04-27 00:18 -30.65054 115.68897 25140 ft 410 kts 316°
2026-04-27 00:18 -30.62945 115.66650 25396 ft 412 kts 316°
2026-04-27 00:18 -30.60824 115.64402 25683 ft 414 kts 316°
2026-04-27 00:19 -30.58691 115.62150 25989 ft 415 kts 316°
2026-04-27 00:19 -30.56551 115.59894 26286 ft 416 kts 316°
2026-04-27 00:19 -30.54403 115.57631 26540 ft 418 kts 316°
2026-04-27 00:19 -30.52272 115.55386 26762 ft 420 kts 316°
2026-04-27 00:20 -30.50106 115.53104 27043 ft 421 kts 316°
2026-04-27 00:20 -30.47934 115.50818 27331 ft 422 kts 316°
2026-04-27 00:20 -30.45758 115.48528 27583 ft 424 kts 316°
2026-04-27 00:20 -30.43571 115.46228 27803 ft 426 kts 317°
2026-04-27 00:21 -30.41372 115.43916 28044 ft 427 kts 317°
2026-04-27 00:21 -30.39166 115.41599 28292 ft 429 kts 317°
2026-04-27 00:21 -30.38775 115.41188 28330 ft 430 kts 317°
2026-04-27 00:22 -30.37479 115.39827 28474 ft 430 kts 317°
2026-04-27 00:22 -30.35787 115.38052 28661 ft 432 kts 317°
2026-04-27 00:22 -30.33558 115.35714 28875 ft 433 kts 317°
2026-04-27 00:23 -30.31318 115.33368 29110 ft 435 kts 317°
2026-04-27 00:23 -30.29074 115.31017 29416 ft 435 kts 317°
2026-04-27 00:23 -30.26834 115.28672 29719 ft 434 kts 317°
2026-04-27 00:23 -30.24589 115.26324 29907 ft 436 kts 317°
2026-04-27 00:24 -30.22363 115.23997 30108 ft 438 kts 317°
2026-04-27 00:24 -30.20100 115.21633 30275 ft 440 kts 317°
2026-04-27 00:24 -30.17826 115.19260 30465 ft 441 kts 317°
2026-04-27 00:24 -30.15546 115.16882 30639 ft 442 kts 317°
2026-04-27 00:25 -30.13267 115.14505 30897 ft 441 kts 317°
2026-04-27 00:25 -30.10993 115.12137 31163 ft 440 kts 317°
2026-04-27 00:25 -30.08727 115.09777 31434 ft 439 kts 317°
2026-04-27 00:25 -30.06458 115.07417 31638 ft 439 kts 317°
2026-04-27 00:26 -30.04218 115.05088 31895 ft 439 kts 317°
2026-04-27 00:26 -30.01949 115.02730 32206 ft 438 kts 317°
2026-04-27 00:26 -29.99690 115.00383 32507 ft 437 kts 317°
2026-04-27 00:26 -29.97440 114.98047 32894 ft 433 kts 317°
2026-04-27 00:27 -29.95209 114.95734 33226 ft 430 kts 317°
2026-04-27 00:27 -29.92986 114.93428 33450 ft 430 kts 317°
2026-04-27 00:27 -29.90762 114.91125 33676 ft 430 kts 317°
2026-04-27 00:27 -29.88541 114.88825 33896 ft 429 kts 317°
2026-04-27 00:28 -29.86350 114.86558 34058 ft 430 kts 317°
2026-04-27 00:28 -29.84120 114.84251 34147 ft 432 kts 317°
2026-04-27 00:28 -29.81887 114.81944 34351 ft 431 kts 317°
2026-04-27 00:28 -29.79657 114.79640 34587 ft 430 kts 317°
2026-04-27 00:29 -29.77432 114.77344 34810 ft 428 kts 317°
2026-04-27 00:29 -29.75220 114.75062 35028 ft 427 kts 317°
2026-04-27 00:29 -29.73008 114.72783 35237 ft 426 kts 317°
2026-04-27 00:29 -29.70826 114.70535 35429 ft 425 kts 317°
2026-04-27 00:30 -29.68625 114.68269 35624 ft 425 kts 317°
2026-04-27 00:30 -29.66427 114.66007 35816 ft 424 kts 317°
2026-04-27 00:30 -29.62017 114.61473 35975 ft 427 kts 316°
2026-04-27 00:31 -29.59804 114.59199 36112 ft 427 kts 316°
2026-04-27 00:31 -29.57591 114.56929 36327 ft 426 kts 316°
2026-04-27 00:31 -29.55387 114.54668 36519 ft 425 kts 316°
2026-04-27 00:31 -29.53185 114.52411 36706 ft 424 kts 316°
2026-04-27 00:32 -29.51017 114.50190 36882 ft 423 kts 316°
2026-04-27 00:32 -29.48825 114.47946 37058 ft 422 kts 316°
2026-04-27 00:32 -29.46634 114.45704 37218 ft 422 kts 316°
2026-04-27 00:32 -29.44445 114.43465 37392 ft 421 kts 316°
2026-04-27 00:33 -29.42262 114.41233 37498 ft 421 kts 316°
2026-04-27 00:33 -29.40073 114.38998 37612 ft 421 kts 316°
2026-04-27 00:33 -29.37886 114.36765 37801 ft 420 kts 316°
2026-04-27 00:33 -29.35709 114.34544 37993 ft 419 kts 316°
2026-04-27 00:34 -29.31380 114.30132 38020 ft 419 kts 316°
2026-04-27 00:34 -29.27027 114.25699 38018 ft 419 kts 316°
2026-04-27 00:35 -29.22672 114.21270 38018 ft 418 kts 316°
2026-04-27 00:35 -29.18317 114.16847 38021 ft 419 kts 316°
2026-04-27 00:36 -29.13982 114.12449 38008 ft 419 kts 316°
2026-04-27 00:36 -29.09615 114.08024 38028 ft 419 kts 316°
2026-04-27 00:37 -29.05162 114.03715 38015 ft 421 kts 322°
2026-04-27 00:37 -28.99990 114.00525 38016 ft 426 kts 333°
2026-04-27 00:38 -28.94507 113.98045 38009 ft 428 kts 335°
2026-04-27 00:38 -28.88920 113.95683 38013 ft 428 kts 335°
2026-04-27 00:39 -28.83334 113.93320 38003 ft 428 kts 335°
2026-04-27 00:39 -28.77756 113.90935 38015 ft 428 kts 335°
2026-04-27 00:40 -28.72222 113.88558 38002 ft 428 kts 335°
2026-04-27 00:40 -28.66651 113.86165 38011 ft 428 kts 335°
2026-04-27 00:41 -28.61084 113.83778 38012 ft 428 kts 335°
2026-04-27 00:41 -28.55516 113.81394 38010 ft 428 kts 335°
2026-04-27 00:42 -28.49944 113.79012 38008 ft 428 kts 335°
2026-04-27 00:42 -28.44414 113.76650 38008 ft 428 kts 335°
2026-04-27 00:43 -28.38842 113.74272 38022 ft 428 kts 335°
2026-04-27 00:43 -28.33274 113.71899 38004 ft 427 kts 335°
2026-04-27 00:44 -28.27703 113.69528 38010 ft 427 kts 335°
2026-04-27 00:44 -28.22173 113.67177 37997 ft 427 kts 335°
2026-04-27 00:45 -28.16602 113.64810 38003 ft 428 kts 335°
2026-04-27 00:45 -28.11029 113.62445 38002 ft 428 kts 335°
2026-04-27 00:46 -28.05453 113.60082 38005 ft 428 kts 335°
2026-04-27 00:46 -27.99878 113.57722 37994 ft 428 kts 335°
2026-04-27 00:47 -27.94350 113.55385 37998 ft 426 kts 334°
2026-04-27 00:47 -27.88798 113.53040 37999 ft 425 kts 334°
2026-04-27 00:48 -27.83253 113.50700 37996 ft 425 kts 334°
2026-04-27 00:48 -27.77732 113.48373 37996 ft 425 kts 334°
2026-04-27 00:49 -27.72185 113.46037 37992 ft 425 kts 334°
2026-04-27 00:49 -27.66653 113.43711 37996 ft 424 kts 334°
2026-04-27 00:50 -27.58394 113.40242 37993 ft 424 kts 334°
2026-04-27 00:51 -27.52855 113.37918 37995 ft 425 kts 334°
2026-04-27 00:51 -27.47314 113.35597 37981 ft 425 kts 334°
2026-04-27 00:52 -27.41781 113.33282 37992 ft 423 kts 334°
2026-04-27 00:52 -27.36298 113.30990 37993 ft 423 kts 334°
2026-04-27 00:53 -27.30782 113.28685 37995 ft 423 kts 334°
2026-04-27 00:53 -27.25265 113.26383 37993 ft 423 kts 334°
2026-04-27 00:54 -27.19787 113.24101 37991 ft 422 kts 334°
2026-04-27 00:54 -27.14297 113.21817 37989 ft 420 kts 334°
2026-04-27 00:55 -27.08822 113.19539 37986 ft 419 kts 334°
2026-04-27 00:55 -27.03349 113.17265 37989 ft 419 kts 334°
2026-04-27 00:56 -26.97913 113.15008 37989 ft 419 kts 334°
2026-04-27 00:56 -26.92449 113.12743 37988 ft 417 kts 334°
2026-04-27 00:57 -26.87022 113.10498 38006 ft 415 kts 333°
2026-04-27 00:57 -26.81607 113.08256 37985 ft 415 kts 333°
2026-04-27 00:58 -26.76184 113.06013 37985 ft 416 kts 333°
2026-04-27 00:58 -26.70797 113.03788 37986 ft 416 kts 333°
2026-04-27 00:59 -26.65377 113.01554 37982 ft 414 kts 334°
2026-04-27 00:59 -26.59976 112.99328 37980 ft 414 kts 334°
2026-04-27 01:00 -26.54578 112.97106 37980 ft 413 kts 334°
2026-04-27 01:00 -26.49215 112.94900 37983 ft 413 kts 334°
2026-04-27 01:01 -26.43818 112.92683 37948 ft 413 kts 333°
2026-04-27 01:01 -26.38415 112.90465 37985 ft 415 kts 333°
2026-04-27 01:02 -26.32998 112.88243 37969 ft 415 kts 333°
2026-04-27 01:02 -26.27578 112.86024 37974 ft 415 kts 333°
2026-04-27 01:03 -26.22196 112.83822 37988 ft 415 kts 333°
2026-04-27 01:03 -26.16776 112.81606 37962 ft 415 kts 333°
2026-04-27 01:04 -26.11363 112.79397 37977 ft 414 kts 333°
2026-04-27 01:04 -26.05958 112.77192 37974 ft 413 kts 333°
2026-04-27 01:05 -26.00594 112.75005 37988 ft 413 kts 333°
2026-04-27 01:05 -25.95192 112.72805 37974 ft 414 kts 333°
2026-04-27 01:06 -25.89787 112.70606 37980 ft 414 kts 333°
2026-04-27 01:06 -25.84383 112.68410 37981 ft 414 kts 333°
2026-04-27 01:07 -25.79013 112.66230 37966 ft 414 kts 333°
2026-04-27 01:07 -25.73608 112.64038 37980 ft 414 kts 333°
2026-04-27 01:08 -25.68202 112.61847 37967 ft 414 kts 333°
2026-04-27 01:08 -25.62798 112.59660 37964 ft 413 kts 333°
2026-04-27 01:09 -25.57403 112.57479 37971 ft 412 kts 333°
2026-04-27 01:09 -25.52056 112.55319 37974 ft 412 kts 333°
2026-04-27 01:10 -25.46675 112.53146 37971 ft 412 kts 333°
2026-04-27 01:10 -25.41291 112.50974 37971 ft 412 kts 333°
2026-04-27 01:11 -25.35908 112.48806 37963 ft 412 kts 333°
2026-04-27 01:11 -25.30566 112.46657 37976 ft 411 kts 333°
2026-04-27 01:12 -25.25193 112.44496 37976 ft 411 kts 333°
2026-04-27 01:12 -25.19822 112.42338 37976 ft 411 kts 333°
2026-04-27 01:13 -25.14449 112.40182 37973 ft 411 kts 333°
2026-04-27 01:13 -25.09113 112.38043 37949 ft 411 kts 333°
2026-04-27 01:14 -25.03753 112.35897 37967 ft 409 kts 333°
2026-04-27 01:14 -24.98411 112.33760 37968 ft 408 kts 333°
2026-04-27 01:15 -24.93073 112.31625 37969 ft 408 kts 333°
2026-04-27 01:15 -24.87732 112.29491 37970 ft 408 kts 333°
2026-04-27 01:16 -24.82429 112.27375 37948 ft 408 kts 333°
2026-04-27 01:16 -24.77107 112.25255 37974 ft 405 kts 333°
2026-04-27 01:17 -24.71823 112.23152 37975 ft 403 kts 333°
2026-04-27 01:17 -24.66546 112.21051 37982 ft 403 kts 333°
2026-04-27 01:18 -24.61307 112.18966 37966 ft 403 kts 333°
2026-04-27 01:18 -24.56028 112.16869 37963 ft 404 kts 333°
2026-04-27 01:19 -24.50748 112.14774 37973 ft 403 kts 333°
2026-04-27 01:19 -24.45485 112.12688 37982 ft 402 kts 333°
2026-04-27 01:20 -24.40216 112.10599 37962 ft 403 kts 333°
2026-04-27 01:20 -24.34969 112.08521 37980 ft 404 kts 333°
2026-04-27 01:21 -24.29684 112.06432 37971 ft 404 kts 333°
2026-04-27 01:21 -24.24401 112.04345 37970 ft 403 kts 333°
2026-04-27 01:22 -24.19138 112.02269 37969 ft 401 kts 333°
2026-04-27 01:22 -24.13919 112.00210 37969 ft 401 kts 333°
2026-04-27 01:23 -24.08666 111.98139 37971 ft 401 kts 333°
2026-04-27 01:23 -24.03410 111.96069 37971 ft 402 kts 333°
2026-04-27 01:24 -23.98171 111.94009 37964 ft 401 kts 333°
2026-04-27 01:24 -23.92945 111.91957 37969 ft 397 kts 333°
2026-04-27 01:25 -23.87755 111.89920 37969 ft 396 kts 333°
2026-04-27 01:25 -23.82600 111.87895 37974 ft 396 kts 333°
2026-04-27 01:26 -23.77408 111.85858 37972 ft 396 kts 333°
2026-04-27 01:26 -23.72219 111.83825 37971 ft 396 kts 333°
2026-04-27 01:27 -23.67032 111.81795 37971 ft 395 kts 333°
2026-04-27 01:27 -23.61902 111.79791 37980 ft 394 kts 333°
2026-04-27 01:28 -23.56740 111.77772 37971 ft 395 kts 333°
2026-04-27 01:28 -23.51567 111.75751 37971 ft 395 kts 333°
2026-04-27 01:29 -23.46389 111.73731 37974 ft 395 kts 333°
2026-04-27 01:29 -23.41247 111.71728 37967 ft 395 kts 333°
2026-04-27 01:30 -23.36077 111.69716 37973 ft 394 kts 333°
2026-04-27 01:30 -23.30919 111.67709 37974 ft 393 kts 333°
2026-04-27 01:31 -23.25765 111.65705 37973 ft 394 kts 333°
2026-04-27 01:31 -23.20606 111.63700 37974 ft 394 kts 333°
2026-04-27 01:32 -23.15482 111.61711 37977 ft 394 kts 333°
2026-04-27 01:32 -23.10323 111.59710 37977 ft 394 kts 333°
2026-04-27 01:33 -23.05165 111.57712 37977 ft 394 kts 333°
2026-04-27 01:33 -23.00038 111.55727 37976 ft 394 kts 333°
2026-04-27 01:34 -22.94877 111.53730 37977 ft 394 kts 333°
2026-04-27 01:34 -22.89717 111.51735 37977 ft 394 kts 333°
2026-04-27 01:35 -22.84556 111.49741 37975 ft 394 kts 333°
2026-04-27 01:35 -22.79417 111.47757 37985 ft 395 kts 333°
2026-04-27 01:36 -22.74231 111.45757 37976 ft 395 kts 333°
2026-04-27 01:36 -22.69048 111.43761 37984 ft 395 kts 333°
2026-04-27 01:37 -22.63864 111.41765 37976 ft 395 kts 333°
2026-04-27 01:37 -22.58680 111.39771 37987 ft 395 kts 333°
2026-04-27 01:38 -22.53521 111.37787 37980 ft 397 kts 333°
2026-04-27 01:38 -22.48293 111.35777 37982 ft 399 kts 333°
2026-04-27 01:39 -22.43057 111.33768 37979 ft 399 kts 333°
2026-04-27 01:39 -22.37821 111.31762 37980 ft 399 kts 333°
2026-04-27 01:40 -22.32622 111.29770 37981 ft 399 kts 333°
2026-04-27 01:40 -22.27386 111.27766 37974 ft 399 kts 333°
2026-04-27 01:41 -22.22131 111.25753 37984 ft 402 kts 333°
2026-04-27 01:41 -22.16859 111.23738 37972 ft 402 kts 333°
2026-04-27 01:42 -22.11618 111.21737 37987 ft 402 kts 333°
2026-04-27 01:42 -22.06343 111.19725 37975 ft 402 kts 333°
2026-04-27 01:43 -22.01066 111.17712 37989 ft 402 kts 333°
2026-04-27 01:43 -21.95780 111.15697 37979 ft 404 kts 334°
2026-04-27 01:44 -21.90501 111.13685 37993 ft 406 kts 334°
2026-04-27 01:44 -21.85181 111.11664 37975 ft 404 kts 334°
2026-04-27 01:45 -21.79879 111.09650 37984 ft 404 kts 334°
2026-04-27 01:45 -21.74579 111.07636 37982 ft 404 kts 334°
2026-04-27 01:46 -21.69317 111.05639 37973 ft 404 kts 334°
2026-04-27 01:46 -21.64002 111.03621 37980 ft 406 kts 334°
2026-04-27 01:47 -21.58673 111.01602 37975 ft 406 kts 334°
2026-04-27 01:47 -21.53344 110.99585 37977 ft 406 kts 334°
2026-04-27 01:48 -21.48053 110.97583 37977 ft 406 kts 334°
2026-04-27 01:48 -21.42721 110.95568 37979 ft 406 kts 334°
2026-04-27 01:49 -21.37386 110.93551 37977 ft 408 kts 334°
2026-04-27 01:49 -21.32023 110.91525 37976 ft 409 kts 334°
2026-04-27 01:50 -21.26684 110.89512 37978 ft 409 kts 334°
2026-04-27 01:50 -21.21308 110.87487 37976 ft 409 kts 334°
2026-04-27 01:51 -21.15934 110.85463 37978 ft 409 kts 334°
2026-04-27 01:51 -21.10560 110.83441 37964 ft 409 kts 334°
2026-04-27 01:52 -21.05167 110.81412 37985 ft 412 kts 334°
2026-04-27 01:52 -20.99791 110.79392 37977 ft 412 kts 334°
2026-04-27 01:53 -20.94397 110.77369 37975 ft 410 kts 334°
2026-04-27 01:53 -20.89011 110.75348 37979 ft 410 kts 334°
2026-04-27 01:54 -20.83661 110.73342 37983 ft 410 kts 334°
2026-04-27 01:54 -20.78270 110.71322 37980 ft 412 kts 334°
2026-04-27 01:55 -20.72851 110.69292 37984 ft 413 kts 334°
2026-04-27 01:55 -20.67424 110.67263 37982 ft 413 kts 334°
2026-04-27 01:56 -20.59321 110.64236 37972 ft 413 kts 334°
2026-04-27 01:56 -20.53891 110.62209 37975 ft 413 kts 334°
2026-04-27 01:57 -20.48460 110.60182 37981 ft 414 kts 334°
2026-04-27 01:57 -20.43003 110.58147 37980 ft 416 kts 334°
2026-04-27 01:58 -20.37571 110.56124 37979 ft 416 kts 334°
2026-04-27 01:58 -20.32102 110.54090 37981 ft 416 kts 334°
2026-04-27 01:59 -20.26633 110.52056 37980 ft 416 kts 334°
2026-04-27 01:59 -20.21164 110.50024 37980 ft 416 kts 334°
2026-04-27 02:00 -20.15730 110.48006 37983 ft 416 kts 334°
2026-04-27 02:00 -20.10267 110.45979 37987 ft 415 kts 334°
2026-04-27 02:01 -20.04818 110.43959 37978 ft 414 kts 334°
2026-04-27 02:01 -19.99377 110.41942 37981 ft 414 kts 334°
2026-04-27 02:02 -19.93974 110.39941 37986 ft 414 kts 334°
2026-04-27 02:02 -19.88530 110.37926 37978 ft 415 kts 334°
2026-04-27 02:03 -19.83065 110.35904 37976 ft 416 kts 334°
2026-04-27 02:03 -19.77589 110.33881 37976 ft 416 kts 334°
2026-04-27 02:04 -19.72154 110.31875 37980 ft 416 kts 334°
2026-04-27 02:04 -19.66672 110.29854 37980 ft 416 kts 334°
2026-04-27 02:05 -19.61200 110.27836 37952 ft 416 kts 334°
2026-04-27 02:05 -19.55753 110.25828 37976 ft 419 kts 334°
2026-04-27 02:06 -19.50242 110.23799 37974 ft 419 kts 334°
2026-04-27 02:06 -19.44729 110.21772 37977 ft 419 kts 334°
2026-04-27 02:07 -19.39217 110.19746 37977 ft 419 kts 334°
2026-04-27 02:07 -19.33702 110.17720 37975 ft 419 kts 334°
2026-04-27 02:08 -19.28226 110.15710 37979 ft 420 kts 335°
2026-04-27 02:08 -19.22694 110.13680 37979 ft 421 kts 335°
2026-04-27 02:09 -19.17149 110.11648 37977 ft 422 kts 334°
2026-04-27 02:09 -19.11608 110.09619 37977 ft 421 kts 334°
2026-04-27 02:10 -19.06103 110.07604 37977 ft 421 kts 334°
2026-04-27 02:10 -19.00563 110.05578 37977 ft 421 kts 334°
2026-04-27 02:11 -18.95018 110.03550 37977 ft 422 kts 335°
2026-04-27 02:11 -18.89459 110.01520 37977 ft 423 kts 335°
2026-04-27 02:12 -18.83939 109.99505 37977 ft 423 kts 335°
2026-04-27 02:12 -18.78379 109.97478 37977 ft 423 kts 335°
2026-04-27 02:13 -18.72822 109.95452 37974 ft 423 kts 335°
2026-04-27 02:13 -18.67261 109.93427 37968 ft 423 kts 335°
2026-04-27 02:14 -18.61730 109.91413 37978 ft 424 kts 335°
2026-04-27 02:14 -18.56153 109.89385 37974 ft 424 kts 335°
2026-04-27 02:15 -18.50574 109.87358 37976 ft 424 kts 335°
2026-04-27 02:15 -18.44999 109.85333 37976 ft 424 kts 335°
2026-04-27 02:16 -18.39460 109.83323 37971 ft 424 kts 335°
2026-04-27 02:16 -18.33879 109.81299 37972 ft 425 kts 336°
2026-04-27 02:17 -18.28280 109.79269 37976 ft 426 kts 335°
2026-04-27 02:17 -18.22682 109.77243 37972 ft 425 kts 335°
2026-04-27 02:18 -18.17090 109.75219 37972 ft 425 kts 335°
2026-04-27 02:18 -18.11538 109.73211 37972 ft 425 kts 335°
2026-04-27 02:19 -18.05946 109.71190 37963 ft 425 kts 336°
2026-04-27 02:19 -18.00339 109.69164 37971 ft 427 kts 336°
2026-04-27 02:20 -17.94754 109.67148 37971 ft 428 kts 336°
2026-04-27 02:20 -17.89127 109.65119 37971 ft 428 kts 336°
2026-04-27 02:21 -17.83502 109.63092 37971 ft 428 kts 336°
2026-04-27 02:21 -17.77872 109.61064 37971 ft 428 kts 336°
2026-04-27 02:22 -17.72242 109.59037 37972 ft 429 kts 336°
2026-04-27 02:22 -17.66621 109.57014 37968 ft 431 kts 336°
2026-04-27 02:23 -17.60953 109.54976 37970 ft 431 kts 336°
2026-04-27 02:23 -17.55278 109.52938 37970 ft 431 kts 336°
2026-04-27 02:24 -17.49608 109.50903 37972 ft 431 kts 336°
2026-04-27 02:24 -17.43973 109.48881 37967 ft 431 kts 336°
2026-04-27 02:25 -17.38302 109.46847 37963 ft 432 kts 337°
2026-04-27 02:25 -17.32600 109.44804 37966 ft 432 kts 336°
2026-04-27 02:26 -17.26950 109.42781 37968 ft 432 kts 336°
2026-04-27 02:26 -17.21260 109.40745 37968 ft 432 kts 336°
2026-04-27 02:27 -17.15570 109.38711 37969 ft 432 kts 336°
2026-04-27 02:27 -17.09882 109.36678 37968 ft 432 kts 336°
2026-04-27 02:28 -17.04232 109.34660 37965 ft 432 kts 336°
2026-04-27 02:28 -16.98543 109.32629 37965 ft 432 kts 336°
2026-04-27 02:29 -16.92852 109.30599 37967 ft 432 kts 336°
2026-04-27 02:29 -16.87162 109.28571 37965 ft 432 kts 336°
2026-04-27 02:30 -16.81510 109.26558 37965 ft 432 kts 336°
2026-04-27 02:30 -16.75815 109.24530 37960 ft 433 kts 337°
2026-04-27 02:31 -16.70110 109.22500 37965 ft 434 kts 337°
2026-04-27 02:31 -16.64400 109.20470 37967 ft 434 kts 337°
2026-04-27 02:32 -16.58723 109.18453 37961 ft 434 kts 337°
2026-04-27 02:32 -16.53010 109.16424 37953 ft 434 kts 337°
2026-04-27 02:33 -16.47295 109.14396 37953 ft 434 kts 337°
2026-04-27 02:33 -16.41562 109.12362 37963 ft 436 kts 337°
2026-04-27 02:34 -16.35815 109.10325 37961 ft 436 kts 337°
2026-04-27 02:34 -16.30107 109.08303 37963 ft 436 kts 337°
2026-04-27 02:35 -16.24359 109.06269 37960 ft 436 kts 337°
2026-04-27 02:35 -16.18613 109.04236 37960 ft 436 kts 337°
2026-04-27 02:36 -16.12898 109.02215 37963 ft 437 kts 338°
2026-04-27 02:36 -16.07126 109.00175 37961 ft 439 kts 338°
2026-04-27 02:37 -16.01341 108.98132 37959 ft 439 kts 338°
2026-04-27 02:37 -15.95560 108.96093 37965 ft 439 kts 338°
2026-04-27 02:38 -15.90754 108.94398 37959 ft 439 kts 338°
2026-04-27 02:38 -15.84036 108.92029 37948 ft 439 kts 338°
2026-04-27 02:39 -15.78239 108.89987 37963 ft 441 kts 338°
2026-04-27 02:39 -15.72412 108.87935 37960 ft 443 kts 338°
2026-04-27 02:40 -15.66581 108.85884 37959 ft 443 kts 338°
2026-04-27 02:40 -15.60788 108.83847 37960 ft 442 kts 338°
2026-04-27 02:41 -15.54955 108.81797 37961 ft 442 kts 338°
2026-04-27 02:41 -15.49123 108.79749 37959 ft 443 kts 338°
2026-04-27 02:42 -15.44251 108.78038 37959 ft 446 kts 338°
2026-04-27 02:42 -15.37422 108.75642 37957 ft 445 kts 338°
2026-04-27 02:43 -15.31553 108.73586 37956 ft 445 kts 338°
2026-04-27 02:43 -15.26685 108.71880 37958 ft 445 kts 338°
2026-04-27 02:44 -15.20823 108.69827 37954 ft 445 kts 338°
2026-04-27 02:44 -15.14957 108.67773 37955 ft 446 kts 338°
2026-04-27 02:45 -15.09060 108.65710 37952 ft 448 kts 338°
2026-04-27 02:45 -15.02198 108.63311 37952 ft 448 kts 338°
2026-04-27 02:46 -14.97291 108.61597 37953 ft 448 kts 338°
2026-04-27 02:46 -14.91383 108.59534 37952 ft 448 kts 338°
2026-04-27 02:47 -14.85475 108.57472 37939 ft 448 kts 339°
2026-04-27 02:47 -14.79597 108.55422 37951 ft 449 kts 339°
2026-04-27 02:48 -14.73682 108.53360 37951 ft 447 kts 339°
2026-04-27 02:48 -14.66842 108.50978 37951 ft 446 kts 339°
2026-04-27 02:49 -14.61911 108.49261 37949 ft 446 kts 339°
2026-04-27 02:49 -14.56071 108.47229 37952 ft 446 kts 339°
2026-04-27 02:50 -14.50180 108.45180 37953 ft 447 kts 339°
2026-04-27 02:50 -14.44281 108.43129 37953 ft 448 kts 339°
2026-04-27 02:51 -14.38372 108.41076 37949 ft 448 kts 339°
2026-04-27 02:51 -14.32502 108.39039 37950 ft 448 kts 339°
2026-04-27 02:52 -14.26596 108.36990 37949 ft 448 kts 339°
2026-04-27 02:52 -14.20691 108.34942 37949 ft 448 kts 339°
2026-04-27 02:53 -14.14779 108.32892 37948 ft 448 kts 339°
2026-04-27 02:53 -14.08865 108.30844 37945 ft 448 kts 339°
2026-04-27 02:54 -14.02992 108.28811 37949 ft 448 kts 339°
2026-04-27 02:54 -13.97077 108.26764 37950 ft 448 kts 339°
2026-04-27 02:55 -13.91163 108.24719 37951 ft 448 kts 339°
2026-04-27 02:55 -13.85247 108.22674 37948 ft 448 kts 339°
2026-04-27 02:56 -13.79375 108.20645 37945 ft 448 kts 339°
2026-04-27 02:56 -13.73459 108.18602 37945 ft 448 kts 339°
2026-04-27 02:57 -13.67542 108.16560 37947 ft 448 kts 339°
2026-04-27 02:57 -13.61629 108.14521 37948 ft 448 kts 339°
2026-04-27 02:58 -13.55751 108.12494 37950 ft 448 kts 339°
2026-04-27 02:58 -13.49835 108.10456 37946 ft 448 kts 340°
2026-04-27 02:59 -13.43922 108.08420 37936 ft 448 kts 340°
2026-04-27 02:59 -13.38007 108.06384 37952 ft 448 kts 340°
2026-04-27 03:00 -13.32133 108.04363 37948 ft 448 kts 340°
2026-04-27 03:00 -13.26224 108.02331 37948 ft 448 kts 340°
2026-04-27 03:01 -13.20313 108.00300 37945 ft 448 kts 340°
2026-04-27 03:01 -13.14476 107.98296 37947 ft 434 kts 340°
2026-04-27 03:02 -13.08833 107.96355 37942 ft 432 kts 340°
2026-04-27 03:02 -13.03082 107.94380 37940 ft 439 kts 340°
2026-04-27 03:03 -12.94281 107.91364 37942 ft 449 kts 340°
2026-04-27 03:04 -12.88351 107.89333 37938 ft 449 kts 340°
2026-04-27 03:04 -12.82472 107.87320 37934 ft 448 kts 341°
2026-04-27 03:05 -12.76551 107.85293 37931 ft 449 kts 341°
2026-04-27 03:05 -12.70627 107.83265 37935 ft 449 kts 341°
2026-04-27 03:06 -12.64703 107.81239 37938 ft 449 kts 341°
2026-04-27 03:06 -12.58820 107.79228 37934 ft 449 kts 341°
2026-04-27 03:07 -12.52896 107.77203 37939 ft 449 kts 341°
2026-04-27 03:07 -12.46970 107.75179 37936 ft 449 kts 341°
2026-04-27 03:08 -12.41035 107.73153 37933 ft 450 kts 341°
2026-04-27 03:08 -12.35095 107.71126 37931 ft 450 kts 341°
2026-04-27 03:09 -12.29197 107.69115 37929 ft 450 kts 341°
2026-04-27 03:09 -12.23256 107.67090 37929 ft 450 kts 341°
2026-04-27 03:10 -12.17313 107.65065 37926 ft 450 kts 341°
2026-04-27 03:10 -12.11364 107.63038 37933 ft 451 kts 341°
2026-04-27 03:11 -12.05445 107.61024 37925 ft 451 kts 341°
2026-04-27 03:11 -11.99483 107.58998 37924 ft 452 kts 341°
2026-04-27 03:12 -11.93509 107.57007 37928 ft 452 kts 341°
2026-04-27 03:12 -11.87530 107.55032 37932 ft 451 kts 341°
2026-04-27 03:13 -11.81593 107.53070 37924 ft 452 kts 341°
2026-04-27 03:13 -11.75605 107.51089 37923 ft 453 kts 341°
2026-04-27 03:14 -11.69610 107.49106 37924 ft 453 kts 341°
2026-04-27 03:14 -11.63615 107.47123 37923 ft 453 kts 341°
2026-04-27 03:15 -11.57659 107.45154 37923 ft 453 kts 341°
2026-04-27 03:15 -11.51663 107.43173 37924 ft 453 kts 341°
2026-04-27 03:16 -11.45662 107.41191 37928 ft 454 kts 342°
2026-04-27 03:16 -11.39633 107.39200 37925 ft 456 kts 342°
2026-04-27 03:17 -11.33628 107.37219 37927 ft 457 kts 342°
2026-04-27 03:17 -11.27576 107.35223 37923 ft 457 kts 342°
2026-04-27 03:18 -11.21522 107.33227 37918 ft 457 kts 342°
2026-04-27 03:18 -11.15467 107.31231 37919 ft 457 kts 342°
2026-04-27 03:19 -11.09409 107.29236 37921 ft 458 kts 342°
2026-04-27 03:19 -11.03392 107.27255 37918 ft 458 kts 342°
2026-04-27 03:20 -10.97332 107.25260 37921 ft 458 kts 342°
2026-04-27 03:20 -10.91273 107.23267 37920 ft 458 kts 342°
2026-04-27 03:21 -10.85214 107.21275 37916 ft 458 kts 342°
2026-04-27 03:21 -10.79195 107.19296 37915 ft 458 kts 342°
2026-04-27 03:22 -10.73137 107.17306 37918 ft 458 kts 342°
2026-04-27 03:22 -10.67074 107.15315 37914 ft 458 kts 342°
2026-04-27 03:23 -10.61013 107.13325 37919 ft 458 kts 342°
2026-04-27 03:23 -10.54996 107.11350 37921 ft 458 kts 342°
2026-04-27 03:24 -10.48936 107.09363 37917 ft 458 kts 342°
2026-04-27 03:24 -10.42876 107.07376 37918 ft 458 kts 342°
2026-04-27 03:25 -10.36813 107.05389 37917 ft 458 kts 342°
2026-04-27 03:25 -10.30795 107.03418 37914 ft 458 kts 342°
2026-04-27 03:26 -10.24737 107.01433 37918 ft 458 kts 342°
2026-04-27 03:26 -10.18677 106.99450 37917 ft 458 kts 342°
2026-04-27 03:27 -10.12616 106.97467 37914 ft 458 kts 342°
2026-04-27 03:27 -10.06591 106.95496 37917 ft 459 kts 342°
2026-04-27 03:28 -10.00510 106.93508 37915 ft 459 kts 342°
2026-04-27 03:28 -9.94426 106.91519 37914 ft 459 kts 342°
2026-04-27 03:29 -9.88342 106.89531 37918 ft 459 kts 342°
2026-04-27 03:29 -9.82298 106.87558 37916 ft 459 kts 342°
2026-04-27 03:30 -9.76214 106.85572 37917 ft 459 kts 342°
2026-04-27 03:30 -9.70132 106.83587 37920 ft 459 kts 342°
2026-04-27 03:31 -9.64047 106.81602 37917 ft 459 kts 342°
2026-04-27 03:31 -9.57966 106.79619 37915 ft 459 kts 342°
2026-04-27 03:32 -9.51923 106.77649 37916 ft 459 kts 342°
2026-04-27 03:32 -9.45836 106.75666 37917 ft 459 kts 342°
2026-04-27 03:33 -9.39755 106.73686 37911 ft 459 kts 342°
2026-04-27 03:33 -9.33673 106.71705 37914 ft 459 kts 342°
2026-04-27 03:34 -9.27633 106.69739 37906 ft 459 kts 342°
2026-04-27 03:34 -9.21548 106.67760 37913 ft 459 kts 342°
2026-04-27 03:35 -9.15468 106.65782 37916 ft 459 kts 342°
2026-04-27 03:35 -9.09387 106.63805 37913 ft 459 kts 342°
2026-04-27 03:36 -9.03306 106.61829 37910 ft 458 kts 342°
2026-04-27 03:36 -8.97286 106.59873 37911 ft 457 kts 342°
2026-04-27 03:37 -8.91232 106.57907 37913 ft 457 kts 342°
2026-04-27 03:37 -8.85176 106.55941 37908 ft 457 kts 342°
2026-04-27 03:38 -8.79117 106.53975 37906 ft 457 kts 342°
2026-04-27 03:38 -8.73102 106.52023 37912 ft 457 kts 342°
2026-04-27 03:39 -8.67039 106.50057 37912 ft 458 kts 342°
2026-04-27 03:39 -8.60956 106.48085 37909 ft 459 kts 342°
2026-04-27 03:40 -8.54870 106.46112 37903 ft 459 kts 343°
2026-04-27 03:40 -8.48782 106.44140 37910 ft 459 kts 343°
2026-04-27 03:41 -8.42735 106.42181 37908 ft 459 kts 343°
2026-04-27 03:41 -8.36651 106.40212 37907 ft 459 kts 342°
2026-04-27 03:42 -8.30563 106.38241 37907 ft 459 kts 343°
2026-04-27 03:42 -8.24474 106.36271 37904 ft 460 kts 343°
2026-04-27 03:43 -8.18426 106.34315 37903 ft 459 kts 343°
2026-04-27 03:43 -8.12348 106.32342 37902 ft 458 kts 343°
2026-04-27 03:44 -8.06284 106.30366 37904 ft 458 kts 343°
2026-04-27 03:44 -8.00219 106.28390 37901 ft 458 kts 343°
2026-04-27 03:45 -7.94185 106.26425 37903 ft 460 kts 343°
2026-04-27 03:45 -7.88089 106.24442 37901 ft 461 kts 343°
2026-04-27 03:46 -7.81989 106.22458 37901 ft 461 kts 343°
2026-04-27 03:46 -7.75890 106.20474 37905 ft 461 kts 343°
2026-04-27 03:47 -7.69789 106.18491 37900 ft 461 kts 343°
2026-04-27 03:47 -7.63731 106.16522 37901 ft 460 kts 344°
2026-04-27 03:48 -7.57633 106.14541 37900 ft 460 kts 344°
2026-04-27 03:48 -7.51534 106.12560 37901 ft 460 kts 344°
2026-04-27 03:49 -7.45436 106.10581 37898 ft 460 kts 344°
2026-04-27 03:49 -7.39376 106.08614 37901 ft 461 kts 344°
2026-04-27 03:50 -7.33277 106.06634 37902 ft 461 kts 344°
2026-04-27 03:50 -7.27177 106.04656 37901 ft 461 kts 344°
2026-04-27 03:51 -7.21046 106.02668 37898 ft 464 kts 344°
2026-04-27 03:51 -7.14929 106.00685 37900 ft 466 kts 344°
2026-04-27 03:52 -7.08754 105.98684 37893 ft 466 kts 344°
2026-04-27 03:52 -7.02589 105.96685 37899 ft 465 kts 344°
2026-04-27 03:53 -6.96435 105.94691 37898 ft 464 kts 344°
2026-04-27 03:53 -6.90322 105.92712 37952 ft 465 kts 344°
2026-04-27 03:53 -6.87241 105.91715 38104 ft 465 kts 344°
2026-04-27 03:54 -6.84159 105.90726 38294 ft 465 kts 344°
2026-04-27 03:54 -6.81079 105.89743 38477 ft 464 kts 344°
2026-04-27 03:54 -6.78001 105.88763 38641 ft 464 kts 344°
2026-04-27 03:54 -6.74925 105.87785 38773 ft 464 kts 344°
2026-04-27 03:55 -6.71850 105.86807 38900 ft 463 kts 344°
2026-04-27 03:55 -6.68776 105.85829 39033 ft 463 kts 344°
2026-04-27 03:55 -6.65705 105.84852 39160 ft 463 kts 344°
2026-04-27 03:55 -6.62675 105.83887 39291 ft 463 kts 344°
2026-04-27 03:56 -6.59604 105.82909 39402 ft 463 kts 343°
2026-04-27 03:56 -6.56533 105.81932 39517 ft 463 kts 343°
2026-04-27 03:56 -6.53452 105.80951 39566 ft 465 kts 343°
2026-04-27 03:57 -6.47282 105.78988 39802 ft 465 kts 343°
2026-04-27 03:57 -6.41145 105.77036 39892 ft 467 kts 343°
2026-04-27 03:58 -6.34956 105.75068 39894 ft 466 kts 343°
2026-04-27 03:58 -6.28770 105.73101 39896 ft 466 kts 343°
2026-04-27 03:59 -6.22585 105.71134 39899 ft 466 kts 343°
2026-04-27 03:59 -6.16438 105.69181 39897 ft 467 kts 343°
2026-04-27 04:00 -6.10241 105.67212 39895 ft 467 kts 343°
2026-04-27 04:00 -6.04049 105.65244 39897 ft 467 kts 343°
2026-04-27 04:01 -5.97854 105.63277 39894 ft 467 kts 343°
2026-04-27 04:01 -5.91710 105.61326 39891 ft 466 kts 343°
2026-04-27 04:02 -5.90664 105.60994 39891 ft 466 kts 343°